Regional Weather Roundup
Issued by NWS

Home | Current Version | Previous Version | Graphics & Text | Print | Product List | Glossary On
Versions: 1 2 3 4 5 6 7 8 9 10 11 12 13 14 15 16 17 18 19 20 21 22 23 24 25 26 27 28 29 30 31 32 33 34 35 36 37 38 39 40 41 42 43 44 45 46 47 48 49 50
000
ASUS45 KPSR 201000
RWRAZ

PRELIMINARY ARIZONA REGIONAL HOURLY WEATHER ROUNDUP
NATIONAL WEATHER SERVICE PHOENIX AZ
300 AM MST MON OCT 20 2014

NOTE: FAIR INDICATES FEW OR NO CLOUDS BELOW 12,000 FEET WITH NO
SIGNIFICANT WEATHER AND/OR OBSTRUCTIONS TO VISIBILITY.

AZZ001>003-036-201100-
NORTHWEST ARIZONA

CITY           SKY/WX    TMP DP  RH WIND       PRES   REMARKS
KINGMAN        CLEAR     63  43  48 SE12      29.97F
$$

AZZ004>008-015-016-018-201100-
NORTH CENTRAL ARIZONA

CITY           SKY/WX    TMP DP  RH WIND       PRES   REMARKS
GRAND CANYON   CLEAR     48  37  65 E5        30.17S
PRESCOTT       CLEAR     48  40  73 SW7       30.06F
FLAGSTAFF      CLEAR     34  31  88 CALM      30.17F
PAYSON         CLEAR     52  41  66 CALM      30.11S
$$

AZZ009>014-017-201100-
NORTHEAST ARIZONA

CITY           SKY/WX    TMP DP  RH WIND       PRES   REMARKS
WINSLOW        NOT AVBL
SAINT JOHNS    PTCLDY    44  41  89 NW3       30.12S
WINDOW ROCK    CLEAR     39  34  82 N3        30.20F
$$

AZZ023-201100-
GREATER PHOENIX AREA

CITY           SKY/WX    TMP DP  RH WIND       PRES   REMARKS
PHOENIX        PTCLDY    69  58  67 CALM      29.86F
DEER VALLEY    CLEAR     67  51  56 NE5       29.88S
SCOTTSDALE     CLEAR     69  51  52 W3        29.89S
$$

AZZ027-028-201100-
SOUTHWEST MARICOPA COUNTY AND PINAL COUNTY

CITY           SKY/WX    TMP DP  RH WIND       PRES   REMARKS
CASA GRANDE    CLEAR     66  48  52 E7        29.88F
$$

AZZ503-504-507>509-201100-
SOUTHEAST ARIZONA

CITY           SKY/WX    TMP DP  RH WIND       PRES   REMARKS
TUCSON         CLEAR     65  49  56 SE15      29.94F
NOGALES        CLEAR     54  46  74 N5        29.98F
SIERRA VISTA   CLEAR     55  45  67 SE5       30.04F
SAFFORD        CLEAR     56  51  84 SE13      30.01F
$$

AZZ020-021-025-026-031-201100-
SOUTHWEST ARIZONA

CITY           SKY/WX    TMP DP  RH WIND       PRES   REMARKS
YUMA           NOT AVBL
$$

CAZ031-033-041-043-047-048-061-201100-
SOUTHERN CALIFORNIA

CITY           SKY/WX    TMP DP  RH WIND       PRES   REMARKS
DOWNTOWN L.A.  CLEAR     65  61  87 CALM      29.88F
L.A. AIRPORT   PTCLDY    65  62  90 CALM      29.89S
SAN DIEGO      MOCLDY    67  61  81 CALM      29.89F
BURBANK        CLEAR     61  58  90 NW6       29.89F
ONTARIO        CLEAR     63  58  83 CALM      29.89F
RIVERSIDE      CLEAR     62  56  80 CALM      29.90S
PALM SPRINGS   CLEAR     74  54  49 NW3       29.82S
EL CENTRO NAS  CLEAR     70  49  47 NW5       29.76F
IMPERIAL       CLEAR     72  51  47 CALM      29.76F
BLYTHE         CLEAR     70  49  47 N3        29.79F
$$

NVZ020-UTZ003-201100-
SOUTHERN NEVADA-UTAH

CITY           SKY/WX    TMP DP  RH WIND       PRES   REMARKS
LAS VEGAS      NOT AVBL
SALT LAKE CITY CLEAR     49  39  68 SE5       30.03R
$$

NMZ009-TXZ055-201100-
NEW MEXICO-WEST TEXAS

CITY           SKY/WX    TMP DP  RH WIND       PRES   REMARKS
ALBUQUERQUE    PTCLDY    50  42  74 W6        30.18S
EL PASO        PTCLDY    58  55  90 NE14      30.07S
$$


........................KEY........................
SKY/WX - SKY CONDITION/WEATHER
TMP    - TEMPERATURE IN FAHRENHEIT
DP     - DEW POINT IN FAHRENHEIT
RH     - RELATIVE HUMIDITY IN PERCENT
WIND   - DIRECTION AND SPEED IN MILES PER HOUR (MPH)
VRB    - VARIABLE WIND DIRECTION
PRES   - MEAN SEA LEVEL PRESSURE IN INCHES OF MERCURY
         F - FALLING PRESSURE   R - RISING PRESSURE
         S - STEADY PRESSURE
VSB    - VISIBILITY IN MILES
HX     - HEAT INDEX IN FAHRENHEIT
WCI    - WIND CHILL INDEX IN FAHRENHEIT
TC     - TEMPERATURE IN CELSIUS WHICH IS ALSO KNOWN AS
         TEMPERATURE IN CENTIGRADE
AFB    - AIR FORCE BASE
         LUKE AFB IS LUKE AIR FORCE BASE
         DAVIS-MONTHAN IS DAVIS-MONTHAN AIR FORCE BASE
NAS    - NAVAL AIR STATION
         EL CENTRO NAS IS EL CENTRO NAVAL AIR STATION
N/A    - NOT AVAILABLE


USA.gov is the U.S. government's official web portal to all federal, state and local government web resources and services.